Wind_Speed
56 56 57 58 57 57 58 58 58 58 59 60 60 61 61 61 61 59 58 59 59 60 60 61 62 61 60 61 61 61 62 62 63 63 63 62 60 60 59 58 58 58 58 57 55 52 51 51 51 50 49 47 45 43 41 37 33 32 35 35 34 33 37 44 48 49 47 43 40 37 34 32 29 26 24 23 24 26 28 29 30 31 31 30 29 30
54 55 55 54 54 54 55 56 57 57 58 59 59 60 60 61 60 58 58 58 59 59 60 60 60 59 59 60 60 60 61 61 61 61 60 60 59 58 57 57 57 57 56 54 52 49 47 46 46 45 43 41 39 37 34 31 28 27 29 31 31 30 34 40 44 44 42 39 35 32 30 28 26 25 25 26 27 28 30 31 32 32 33 33 32 33
53 52 51 51 52 53 54 55 55 55 56 57 57 58 59 59 58 56 56 56 57 58 59 58 57 57 58 58 59 60 60 60 60 59 59 58 58 57 57 57 56 55 54 52 49 46 43 41 40 39 38 37 35 32 30 27 26 23 22 25 28 31 35 38 37 35 32 30 29 28 27 27 26 26 26 26 26 26 28 31 32 33 34 34 35 35
50 50 50 51 51 51 52 52 52 53 54 55 55 56 56 56 55 54 54 54 55 57 57 56 55 56 56 57 58 59 59 59 59 58 58 57 56 56 56 55 54 53 51 48 45 41 38 35 34 34 34 33 32 30 28 25 22 23 22 21 24 30 34 35 33 30 28 27 26 26 27 28 27 27 27 26 25 23 25 28 31 34 35 37 38 38
49 49 50 50 50 50 50 50 50 51 52 53 54 54 53 53 52 52 52 53 54 55 55 54 53 54 54 55 56 57 57 57 56 55 55 54 54 54 54 52 51 50 47 45 40 36 32 28 28 30 31 31 31 30 29 25 24 27 27 26 30 36 38 37 35 33 31 29 28 28 29 30 29 27 26 24 21 19 19 22 26 29 32 34 35 36
49 50 50 49 49 49 49 49 50 50 51 52 52 52 51 50 50 50 50 50 51 52 52 51 51 51 52 53 53 54 54 53 53 52 51 51 51 51 50 49 47 45 43 40 35 30 24 16 17 25 28 33 36 33 30 27 27 31 31 31 35 41 44 44 41 37 35 33 32 31 32 32 31 29 27 24 21 19 19 19 20 22 24 24 25 26
50 50 49 49 49 49 49 49 49 49 50 50 50 50 49 48 48 48 48 47 48 49 49 48 47 49 50 50 50 50 50 50 49 49 48 48 48 48 47 46 44 42 39 35 29 22 12 7 16 26 32 38 39 35 31 28 28 29 30 32 35 39 43 44 42 39 38 37 37 37 37 36 34 32 30 29 26 24 22 21 20 20 21 21 21 21
50 49 48 48 49 49 49 48 48 48 48 48 48 48 47 46 46 46 45 45 45 46 45 45 44 45 47 46 46 47 47 47 47 46 46 46 46 46 45 43 41 38 35 31 23 14 11 18 30 37 43 47 43 38 34 29 29 30 31 34 35 36 38 38 40 40 38 39 40 40 40 40 38 36 33 31 30 28 25 24 24 23 23 23 24 26
48 48 48 48 49 49 49 48 48 48 47 47 47 46 46 45 44 44 43 43 43 42 42 42 41 41 43 43 43 43 44 44 43 43 43 43 44 44 44 42 39 36 33 28 21 21 29 39 43 43 45 49 47 42 36 30 27 29 35 39 38 36 36 37 38 39 40 40 39 39 40 41 40 38 35 33 32 29 26 26 27 27 27 28 30 32
48 48 48 49 49 49 49 48 48 47 47 47 46 45 45 43 42 42 41 41 41 39 39 40 38 37 40 41 41 40 40 40 40 40 40 41 42 41 41 39 37 34 30 26 24 29 39 45 48 46 44 47 49 43 37 31 24 23 31 38 39 39 40 39 39 40 42 42 40 38 39 40 40 39 38 36 34 31 28 28 30 30 30 32 35 37
49 49 49 49 50 50 49 48 48 48 47 46 46 45 44 43 42 41 41 41 39 37 38 39 36 36 40 42 41 39 39 39 39 39 39 39 39 38 38 37 35 32 29 28 29 34 40 43 46 49 46 45 45 40 36 31 23 23 29 34 38 42 44 43 43 43 44 43 41 39 39 40 41 40 39 38 37 36 35 36 36 36 36 37 38 40
49 49 50 50 50 50 49 49 48 48 47 46 46 45 44 43 42 41 41 40 38 38 39 39 36 37 43 44 41 39 40 40 40 40 40 40 39 39 38 36 35 33 30 31 34 36 38 40 42 43 41 41 43 41 39 35 32 33 34 34 36 39 41 41 42 44 45 44 42 41 40 40 40 40 39 39 40 41 42 43 42 41 41 40 40 40
49 50 50 50 50 50 49 49 48 48 48 47 47 46 44 44 43 41 41 40 39 41 40 39 38 40 44 45 41 41 42 41 42 42 42 41 40 40 38 37 36 34 32 33 37 38 37 38 38 35 34 39 43 43 43 41 40 41 41 42 43 40 38 38 38 38 40 41 41 41 41 41 41 41 40 39 40 42 43 43 41 40 40 39 38 38
49 49 50 50 50 50 50 49 49 49 49 49 48 46 45 46 45 42 42 42 42 44 43 41 41 42 45 46 44 44 44 44 44 44 43 42 41 40 39 38 37 35 34 36 39 39 37 36 35 32 34 40 41 41 42 42 41 43 44 47 50 47 41 36 34 34 35 38 40 41 42 43 42 43 42 42 42 43 44 44 43 42 42 42 42 42
48 49 50 50 50 50 50 50 50 51 51 50 48 48 48 48 47 45 45 45 46 47 45 43 43 43 45 47 47 47 46 46 45 44 43 42 42 41 40 39 38 36 35 37 40 40 37 35 33 30 32 38 40 40 41 41 40 42 43 45 48 49 46 41 38 37 37 38 39 41 43 44 44 45 46 46 46 47 47 47 47 47 47 48 48 47
49 50 51 50 50 51 51 51 51 51 52 51 50 49 49 49 48 48 47 47 48 48 46 45 44 45 47 48 48 47 47 47 46 45 44 43 42 41 40 39 39 37 37 38 39 40 38 35 33 31 31 34 37 39 41 42 41 42 43 45 46 47 46 44 41 39 39 39 40 41 42 42 44 46 47 49 49 49 50 50 50 50 50 50 51 50
49 50 50 50 50 50 50 50 51 51 52 51 50 50 50 50 49 49 48 49 49 48 48 47 47 47 48 49 49 49 48 48 47 46 45 43 42 41 41 40 39 39 38 38 39 39 39 37 36 37 37 36 35 37 42 45 44 43 44 46 45 45 45 43 42 42 43 43 44 44 43 42 43 45 46 47 47 48 48 48 49 49 49 50 50 50
48 50 50 50 50 50 50 51 50 51 51 51 50 51 51 50 49 49 49 49 49 49 49 48 48 48 49 50 50 49 49 48 48 47 46 45 44 43 42 41 40 40 39 39 40 40 40 39 38 38 40 41 40 39 42 46 47 46 46 47 46 46 45 44 44 47 47 47 46 45 44 44 44 45 46 45 45 45 45 46 46 46 46 47 48 49
46 48 49 49 50 50 50 51 50 50 51 51 51 51 51 50 49 50 49 49 48 49 49 49 48 48 49 50 50 50 49 48 47 47 46 45 45 45 44 43 42 41 40 40 40 41 41 40 39 38 39 42 43 43 43 45 48 49 49 49 49 48 48 47 46 47 48 49 49 48 46 46 46 47 48 48 48 46 46 47 47 47 47 48 49 49
43 46 47 48 48 49 49 49 50 49 50 51 51 50 50 49 50 50 49 49 49 49 48 48 48 48 49 50 51 50 49 47 45 44 43 42 41 43 43 43 43 43 42 41 41 42 42 42 41 40 41 42 44 44 45 46 48 50 51 52 51 51 53 53 52 51 52 52 53 53 52 51 50 50 51 52 52 51 50 50 50 51 51 51 51 51
42 43 45 45 45 47 48 48 48 49 49 49 50 49 49 49 49 49 49 48 49 48 48 48 47 48 50 51 51 49 48 47 43 41 41 40 40 42 42 43 44 45 44 43 43 43 43 44 43 43 43 43 45 46 48 49 50 51 53 53 53 54 56 57 57 57 56 56 57 57 57 56 55 54 53 54 54 55 54 54 54 53 52 51 51 51
42 42 43 44 43 44 45 45 46 47 47 47 47 48 48 48 48 48 47 47 47 47 47 47 47 49 50 51 50 49 48 46 43 41 41 41 43 45 46 46 46 46 46 45 44 44 44 45 46 45 45 45 47 50 52 53 53 53 55 55 55 57 59 59 60 60 59 59 59 59 60 60 60 58 57 56 56 56 56 55 55 54 52 52 52 52
45 44 44 43 42 42 42 43 43 44 44 45 45 46 46 46 46 46 46 47 47 47 47 47 48 50 51 51 51 51 49 47 46 44 43 44 46 48 49 48 48 48 47 46 45 45 46 47 48 48 48 48 50 53 54 55 55 56 58 58 58 60 62 63 64 63 62 62 62 62 62 62 62 62 61 60 59 58 58 57 57 56 55 54 53 54
48 47 45 43 43 43 43 43 42 41 42 43 42 43 43 44 44 45 46 47 48 48 48 48 49 50 51 51 51 52 51 50 49 48 48 49 50 50 49 49 48 48 47 47 46 46 46 48 49 50 51 52 54 57 57 57 59 60 60 61 63 64 65 66 67 67 67 66 65 65 65 65 65 64 64 63 61 59 59 59 58 58 58 57 57 59
51 50 47 46 46 46 45 44 42 42 42 42 42 43 43 43 44 44 46 47 47 47 48 49 50 51 52 52 52 52 52 52 52 51 51 51 50 49 49 48 48 47 47 47 47 47 47 48 50 51 53 54 56 59 61 60 62 63 63 64 67 69 70 70 70 70 71 71 70 69 68 68 67 66 65 64 62 61 61 60 60 61 61 61 62 64
52 51 49 48 49 49 48 46 45 45 45 45 45 45 45 45 45 46 46 47 47 46 48 49 51 52 53 53 52 53 53 53 52 51 51 50 47 47 47 47 47 47 47 47 48 48 49 49 50 51 53 54 55 59 62 63 65 67 66 67 69 72 73 74 73 73 74 74 74 72 71 71 70 68 65 63 63 63 63 63 62 62 62 64 67 68
50 51 51 51 52 53 52 50 49 49 49 48 48 47 47 47 48 47 47 47 46 46 48 50 51 53 54 53 53 54 53 54 53 53 52 51 49 49 49 49 48 48 49 49 49 50 50 51 52 53 53 54 56 58 61 63 65 69 70 70 71 73 74 75 76 76 76 76 76 75 75 75 73 71 68 66 66 66 65 65 65 65 67 70 71 71
48 50 51 53 55 56 55 54 53 52 51 50 49 49 49 48 49 49 49 48 47 47 50 52 52 53 54 54 55 55 55 55 55 54 53 53 53 53 53 52 51 50 50 51 51 52 52 53 53 54 55 56 57 59 61 62 65 68 71 73 75 75 76 76 77 77 78 79 78 78 78 78 77 76 75 73 71 70 69 70 71 71 72 73 73 72
48 48 50 53 55 57 57 57 56 55 53 52 52 51 51 50 50 50 51 51 50 51 53 53 53 54 55 56 56 56 56 56 56 56 55 54 55 55 55 54 53 53 52 52 52 53 53 54 54 55 56 58 58 59 60 62 64 66 70 73 76 78 79 80 80 80 80 80 80 80 80 80 79 79 79 78 75 74 75 76 77 78 77 77 76 74
49 49 49 52 54 56 57 57 58 57 56 55 55 54 54 54 53 53 53 53 54 56 56 56 57 57 57 58 59 59 59 58 58 57 56 56 56 56 56 56 55 55 54 53 53 53 54 54 55 56 57 59 60 60 61 62 63 65 67 70 74 77 79 81 82 82 82 82 82 82 82 82 81 81 81 80 77 77 78 79 80 80 79 80 80 79
49 50 50 51 53 54 55 57 58 58 58 58 58 58 57 57 57 57 56 56 57 58 59 59 60 60 60 61 61 61 61 60 60 59 59 58 58 58 59 58 57 56 56 55 55 55 56 56 56 57 58 59 61 62 63 63 64 65 66 68 71 74 76 79 80 82 82 83 83 83 83 83 83 82 82 81 79 79 79 80 81 81 81 82 84 82
49 50 51 52 52 52 54 56 57 58 59 59 60 60 60 60 60 60 60 60 60 61 61 62 63 63 63 63 63 63 63 63 62 61 60 59 58 59 60 58 57 58 58 59 59 58 59 59 58 58 59 60 62 63 65 66 66 67 68 69 70 72 74 76 79 80 81 82 83 83 83 84 84 84 84 83 83 83 83 83 84 84 84 84 84 83
50 50 51 52 52 52 54 56 56 57 57 58 59 60 62 63 63 63 63 64 64 64 63 64 64 65 65 65 65 66 66 65 64 63 61 60 59 59 59 58 58 59 60 60 62 62 62 62 62 61 61 62 63 64 66 68 69 70 71 72 72 73 74 75 77 79 81 82 83 84 84 85 85 85 85 85 86 86 86 86 86 86 86 86 86 85
51 50 51 51 52 52 54 56 57 56 55 55 57 59 60 62 63 64 65 66 65 65 65 65 66 66 67 67 67 67 67 67 66 64 63 62 60 59 59 61 62 63 64 64 66 67 68 67 66 65 65 65 65 67 68 70 72 73 74 75 75 76 76 77 77 78 80 82 83 85 86 87 88 88 89 89 89 90 89 89 88 88 88 89 89 89
52 51 51 52 52 53 55 57 57 56 54 55 56 57 58 60 61 62 64 64 64 64 64 65 66 67 67 68 68 68 69 68 67 66 65 63 61 60 60 61 60 59 62 66 68 69 69 68 67 66 67 68 68 70 71 73 74 75 76 76 77 78 79 79 79 80 80 81 82 84 86 87 88 89 90 90 91 91 92 91 91 92 92 92 92 92
55 54 54 54 54 55 57 58 56 55 55 56 55 55 57 58 59 60 61 62 62 62 62 63 63 65 66 67 67 67 68 68 67 66 64 62 60 60 61 61 59 56 57 62 67 68 67 66 65 65 66 67 68 70 71 72 73 74 75 77 79 80 81 81 81 82 83 83 84 85 87 88 89 89 90 91 91 92 92 93 93 93 93 93 92 91
59 57 56 56 56 56 58 58 57 56 56 55 54 55 57 58 59 59 60 60 60 59 60 60 61 62 64 65 65 65 66 66 65 64 63 60 58 58 60 60 60 60 61 64 66 65 63 63 64 64 65 66 68 70 70 70 70 70 72 74 76 78 78 79 80 81 82 83 84 85 86 87 88 89 90 90 90 91 91 91 91 91 90 89 89 87
61 59 58 58 58 58 59 58 58 57 57 56 56 57 57 58 59 59 60 60 59 58 58 59 60 61 62 63 63 63 64 64 63 62 62 60 59 59 59 59 59 61 64 66 66 63 62 62 63 62 63 64 66 69 69 70 69 69 70 72 73 73 74 74 76 77 77 78 80 80 81 82 83 83 83 84 84 84 84 84 84 84 83 83 82 81
63 62 61 60 60 60 60 59 59 59 58 59 60 59 59 60 60 60 61 60 59 59 59 60 60 61 61 62 63 64 64 64 63 63 64 64 62 61 61 61 61 62 64 65 66 64 62 62 62 61 60 61 64 66 67 69 70 70 70 71 72 72 71 71 72 73 74 74 75 75 76 76 76 76 76 76 76 77 77 78 78 78 78 78 77 76
66 65 64 64 64 63 63 63 63 62 61 62 63 62 62 63 63 63 62 60 60 62 63 63 64 64 64 64 65 66 66 66 66 66 67 66 66 65 64 64 64 64 65 66 67 66 64 64 64 63 63 64 66 68 69 70 71 72 72 73 73 74 73 72 73 73 74 74 74 75 75 75 74 74 74 74 74 74 75 76 76 76 76 76 75 73
68 67 67 67 67 66 66 66 66 65 64 64 65 65 66 66 66 66 64 62 63 66 67 66 67 67 67 67 67 68 68 68 68 69 69 68 68 67 67 66 66 66 67 67 68 68 68 67 67 67 68 68 69 70 71 72 72 72 72 73 73 74 75 75 75 75 75 75 75 76 76 76 76 76 75 75 75 75 76 76 77 77 77 77 77 75
70 70 69 69 69 68 68 69 69 68 66 66 66 67 68 69 69 68 67 66 67 69 69 69 69 69 69 70 70 70 70 70 70 71 71 70 70 70 70 69 69 70 70 70 70 71 71 70 70 70 70 70 71 71 72 72 73 73 73 73 73 74 75 76 76 77 77 77 77 77 78 78 78 78 78 78 78 78 78 78 79 79 80 80 80 78
73 73 72 72 71 71 71 72 72 70 68 68 69 70 70 70 70 69 69 70 70 70 71 71 71 71 71 71 72 72 72 72 72 72 72 72 72 72 72 72 73 73 73 73 73 73 73 73 73 73 73 73 73 73 73 74 75 75 76 75 75 76 76 77 77 78 78 79 79 79 80 81 81 81 82 82 82 82 81 81 81 82 82 82 82 82
73 74 74 74 73 74 74 75 74 72 71 71 72 72 72 72 72 72 72 72 72 72 73 74 74 74 74 74 74 74 74 74 74 74 74 75 75 75 75 76 76 76 76 76 76 76 76 75 76 76 76 76 76 76 76 76 77 78 78 78 78 78 79 79 79 79 80 81 81 82 82 83 84 84 85 85 86 85 85 85 84 84 84 84 84 84
71 72 73 74 74 75 76 76 75 75 75 75 75 75 75 75 75 75 75 75 75 75 75 76 76 76 76 77 77 77 77 77 77 78 78 78 78 79 79 79 79 79 79 79 79 79 79 79 79 79 79 79 79 79 79 79 80 80 81 81 81 81 81 81 81 82 82 83 84 84 85 86 86 87 87 87 88 88 88 88 87 87 87 86 86 86
68 69 71 72 73 74 75 76 76 76 76 76 76 77 77 77 77 78 78 78 78 78 78 78 78 79 79 79 79 79 80 80 81 81 81 82 82 82 82 82 83 83 82 82 82 82 82 82 82 82 82 82 82 81 81 82 82 83 83 83 83 83 83 83 83 84 84 85 86 87 87 88 89 89 89 89 89 90 90 90 89 89 89 89 88 88
64 66 68 70 71 72 73 74 74 75 75 76 76 77 77 78 78 79 79 79 80 80 80 80 80 80 81 81 81 82 82 83 83 83 84 84 84 84 84 85 85 85 85 85 85 85 85 85 85 85 85 85 85 84 84 84 84 84 84 84 84 84 84 83 84 84 85 86 87 87 88 89 89 90 90 90 90 91 91 91 91 90 90 90 90 89
59 61 64 66 68 69 71 72 72 73 74 74 75 75 76 77 77 78 79 80 80 80 81 81 81 81 82 82 83 83 84 84 85 85 85 85 85 85 86 86 86 87 87 87 87 87 87 87 87 87 87 87 87 86 85 85 85 85 85 84 84 84 83 83 83 83 84 86 86 87 88 88 89 89 90 90 90 91 91 91 91 91 92 92 91 90
55 57 59 61 63 65 67 69 70 71 72 73 73 74 74 75 76 76 77 78 78 79 79 80 80 81 81 82 83 83 84 84 85 85 86 86 86 86 86 86 87 87 88 88 88 88 88 88 88 88 88 88 87 87 86 86 85 85 84 83 83 82 82 81 82 82 83 84 85 86 87 87 87 88 88 89 89 89 90 90 90 91 92 91 91 91
50 53 55 57 58 60 62 64 66 67 68 70 70 71 72 73 74 74 75 75 76 77 77 78 79 80 81 81 82 83 83 83 84 85 85 85 86 86 86 86 86 87 87 87 87 87 87 87 87 87 87 87 87 86 86 85 85 84 83 82 81 80 80 80 81 82 83 84 84 85 85 85 86 86 86 87 87 88 88 89 89 90 90 90 89 90
45 47 49 51 53 55 57 59 60 62 63 65 66 67 69 70 71 72 73 74 74 75 75 76 77 78 78 79 80 80 81 82 82 83 83 84 84 84 84 85 85 85 85 86 86 86 86 86 86 85 85 85 85 84 84 84 84 83 82 80 78 76 76 77 78 79 81 82 82 82 82 83 84 85 85 85 85 85 86 86 87 88 88 87 87 88
Wind_Direction
242 242 243 244 245 246 246 247 247 247 248 248 249 250 251 252 252 253 253 254 254 254 254 254 256 257 259 259 260 260 260 261 261 262 263 264 265 265 266 266 267 267 268 268 269 270 271 273 275 277 279 281 283 285 286 286 286 284 281 283 286 284 278 276 278 284 287 287 286 286 286 287 288 285 275 261 254 250 251 255 258 260 262 262 259 255
241 241 242 243 244 244 244 244 245 245 246 247 248 249 250 251 252 253 253 254 254 255 255 255 256 257 258 258 259 260 260 261 261 262 263 264 265 265 265 265 266 266 267 268 269 270 272 274 276 279 281 284 285 284 284 282 279 279 284 292 294 287 277 276 281 284 286 285 283 283 284 284 284 281 274 268 266 263 262 263 263 262 262 262 262 259
240 241 242 242 242 242 243 244 244 245 246 246 247 248 249 251 252 253 253 254 254 255 255 256 256 256 257 258 258 259 260 261 261 262 263 263 264 265 265 264 265 265 266 267 269 271 273 275 278 281 284 285 283 281 279 278 279 279 276 280 284 282 278 279 282 282 282 282 279 279 280 280 280 279 278 275 273 269 265 264 264 264 263 262 262 261
241 241 241 241 241 242 243 243 244 244 245 246 246 247 249 250 251 252 253 253 254 254 255 255 256 256 257 257 258 259 260 260 261 262 262 263 263 264 264 264 264 265 266 267 269 271 273 278 284 288 288 285 280 277 274 273 276 270 251 241 250 262 269 274 275 274 274 277 278 278 280 280 281 281 281 278 274 271 268 266 264 263 262 262 263 263
241 240 241 241 242 242 242 242 243 243 244 245 246 247 248 249 250 251 252 252 253 254 255 255 256 256 257 257 258 259 259 260 261 261 262 262 262 262 263 264 264 265 265 267 268 270 275 286 296 296 291 283 276 272 270 262 252 248 239 226 231 245 256 263 266 267 269 272 276 280 283 283 284 285 283 279 275 278 278 274 269 266 264 263 263 264
240 240 240 241 241 242 242 242 242 243 244 244 245 246 247 248 249 250 250 251 252 253 254 255 255 256 256 256 257 258 259 259 260 260 261 261 261 261 261 261 262 262 263 265 266 269 278 295 297 289 283 276 271 269 268 259 249 248 246 242 244 252 260 264 266 266 265 267 273 278 280 282 285 286 282 277 275 279 282 281 277 273 270 269 269 271
239 239 240 240 241 241 241 242 242 243 243 244 245 246 247 247 248 248 249 250 251 253 254 254 255 255 256 256 257 257 258 258 258 258 259 259 261 261 261 260 259 260 260 261 262 266 279 283 266 264 261 259 260 260 259 256 256 259 260 263 264 264 265 267 268 267 264 264 269 272 274 276 279 280 279 276 275 277 277 278 278 276 276 278 282 285
239 240 240 240 241 241 241 242 242 243 243 245 245 246 246 246 247 247 248 249 250 252 254 254 254 255 256 255 255 256 256 257 257 258 258 258 259 260 260 259 257 257 256 254 251 237 214 223 239 245 247 248 251 250 248 248 253 261 270 275 276 274 272 272 272 272 269 268 269 269 268 268 269 271 275 274 273 275 275 275 275 275 277 282 286 290
238 239 240 240 240 240 241 241 241 242 242 243 244 245 245 245 246 246 247 248 249 251 253 253 253 255 257 256 255 255 256 256 256 256 256 256 256 256 258 258 256 254 251 248 235 211 208 216 224 233 242 246 246 244 243 245 253 269 279 279 276 275 274 270 270 272 272 271 271 269 268 266 264 264 267 269 267 268 271 272 272 274 277 282 286 290
236 237 238 238 239 239 240 240 240 241 241 242 243 244 244 244 244 245 246 247 248 249 252 253 252 254 256 256 255 255 255 255 255 255 254 254 254 253 254 255 254 252 250 244 229 215 216 217 218 226 237 243 245 244 245 248 257 272 278 275 271 271 271 268 267 267 268 268 267 267 268 268 267 264 263 264 263 263 268 271 273 276 278 281 284 288
235 235 236 237 238 239 239 239 240 240 241 242 242 243 243 243 244 244 245 246 247 248 250 251 251 252 255 256 255 255 255 255 255 255 255 254 254 253 253 253 252 250 247 242 233 226 224 222 221 225 233 243 250 251 249 247 243 244 256 266 268 268 269 268 267 266 267 267 266 266 267 267 268 267 263 260 260 261 266 271 274 277 278 279 282 285
234 235 235 236 237 239 239 240 240 241 241 242 242 243 244 244 243 244 245 246 248 248 248 250 250 251 255 256 256 256 256 256 256 256 255 255 254 254 253 252 251 248 245 242 239 234 231 230 228 227 233 244 250 250 248 242 233 231 241 251 255 259 264 266 267 267 266 266 267 267 267 266 267 268 265 260 259 260 265 270 274 276 277 279 281 284
234 235 236 237 238 239 240 240 241 241 242 242 243 243 244 244 244 244 246 247 248 248 248 249 249 251 254 256 256 256 256 256 256 256 255 255 255 254 253 252 251 248 245 245 244 240 236 235 233 228 231 241 244 244 243 240 234 232 236 240 241 245 256 264 268 268 265 265 267 267 268 267 267 268 267 263 262 264 267 270 274 276 278 280 282 284
235 236 237 237 238 239 240 240 240 241 241 241 242 243 244 245 245 244 245 246 247 248 249 249 249 251 254 256 256 256 256 255 255 255 255 255 255 255 254 253 253 251 247 247 247 245 240 238 237 230 229 236 239 241 245 243 236 233 235 240 242 244 249 257 265 268 267 267 268 268 269 269 269 268 267 266 266 268 269 270 272 276 279 281 282 284
235 236 236 236 237 238 239 239 240 241 241 242 242 243 243 244 245 244 244 245 246 248 249 249 249 251 253 255 255 255 255 255 255 255 255 255 255 256 256 255 254 253 250 248 248 248 244 240 238 234 235 240 241 242 247 248 244 240 239 241 245 247 248 253 260 265 267 268 269 269 269 269 269 269 269 269 269 270 270 272 274 276 279 281 283 284
235 236 236 236 237 238 239 239 240 241 242 242 242 242 243 244 245 245 245 246 247 248 249 249 249 250 252 253 254 255 255 255 255 255 255 255 255 255 256 256 255 253 251 249 248 248 246 241 235 230 231 238 243 244 247 248 247 246 245 245 247 249 250 252 255 259 261 266 269 270 270 269 268 267 267 268 270 271 271 273 275 276 279 281 283 284
236 236 236 237 237 238 239 240 240 241 243 243 243 244 244 245 245 246 246 247 248 248 249 249 249 250 251 253 253 254 254 254 255 256 256 256 256 256 255 255 254 252 250 248 247 246 244 240 234 228 224 226 234 242 245 245 246 246 246 246 246 247 250 250 249 252 257 263 267 268 268 267 266 265 265 266 269 271 273 275 277 279 281 283 284 285
238 238 237 237 238 238 239 239 240 241 243 244 244 244 245 245 246 246 246 247 248 249 249 249 249 249 250 252 252 252 253 254 255 256 257 257 256 256 255 254 253 252 250 247 246 245 243 241 237 233 229 225 227 234 240 244 245 245 245 246 246 246 249 250 249 251 255 258 261 262 262 262 263 263 265 268 270 272 274 277 278 280 281 282 283 284
239 240 239 238 238 238 239 239 240 240 242 243 243 243 245 245 245 246 246 246 247 248 248 249 249 249 250 250 251 251 252 254 255 256 256 257 257 256 255 253 252 250 248 247 245 244 244 241 238 236 235 230 228 231 237 242 244 243 242 245 246 245 246 248 249 251 253 254 255 256 256 256 257 258 261 265 268 269 271 273 275 277 279 279 279 280
239 240 240 238 238 239 239 239 240 240 241 242 243 243 244 245 245 245 245 245 246 246 247 247 248 248 248 248 249 250 251 252 253 254 255 254 254 253 253 252 251 249 247 245 243 243 243 242 239 236 235 232 229 230 233 238 241 240 241 244 246 245 245 246 247 249 251 252 252 252 253 254 255 257 260 263 265 266 268 270 272 274 276 276 276 276
239 240 241 239 238 239 239 239 240 240 240 242 243 243 243 243 244 245 245 245 246 246 246 245 246 246 246 247 248 249 249 250 250 250 250 248 249 250 250 250 250 249 247 245 243 242 242 242 240 237 235 233 231 229 230 233 235 235 238 243 246 246 246 246 246 248 249 251 252 253 254 255 256 258 261 263 265 265 266 267 269 271 273 273 272 272
240 240 241 240 239 239 239 239 239 240 240 241 242 243 243 242 243 244 244 245 245 244 244 244 244 244 245 246 247 247 247 247 245 244 245 246 247 248 248 248 249 249 248 247 245 243 242 242 241 238 235 233 233 232 232 232 231 232 237 242 245 245 245 246 246 247 249 251 253 254 255 255 257 258 259 261 263 264 264 265 266 267 268 269 270 270
240 240 241 241 241 241 241 239 239 240 240 240 240 242 242 242 242 243 242 242 242 242 242 242 242 243 244 245 246 246 246 245 244 243 245 246 246 248 249 249 249 248 248 247 246 245 243 242 242 240 236 232 231 233 234 232 231 233 238 242 245 246 246 246 246 246 248 250 252 253 255 255 256 258 259 260 261 261 261 262 263 264 265 266 268 271
239 239 240 242 242 242 242 241 240 240 241 240 240 240 241 241 240 241 240 240 240 240 241 241 242 243 245 245 246 246 246 245 245 245 246 247 248 249 249 249 249 249 249 248 246 244 243 243 242 242 240 235 231 232 233 232 231 234 239 242 244 246 246 246 246 246 247 249 250 252 254 255 256 257 258 259 260 261 261 261 263 264 265 266 268 273
239 239 238 240 242 242 242 242 242 242 241 241 240 239 238 238 238 238 239 239 240 240 241 242 243 244 245 245 246 246 247 246 246 246 247 249 250 250 250 250 250 250 250 250 248 246 244 242 241 242 242 239 235 233 233 232 231 233 239 242 243 245 246 246 246 246 246 248 250 251 253 255 256 256 257 258 260 262 262 262 264 266 267 268 271 276
240 240 238 238 241 242 242 242 242 242 241 239 238 237 237 237 237 238 238 239 239 240 241 242 243 244 245 246 246 247 248 248 248 247 248 248 249 249 249 249 249 250 250 250 249 247 245 243 241 240 241 240 238 236 236 235 232 233 237 241 243 245 246 248 248 248 248 248 250 252 253 255 256 256 256 257 259 262 263 264 265 267 269 271 275 279
239 240 239 238 239 241 242 241 241 241 241 241 240 240 239 239 240 240 241 241 241 241 242 242 243 245 247 247 248 249 249 249 249 249 248 248 248 249 249 249 249 249 249 249 248 247 246 245 243 241 240 240 240 239 238 237 236 234 236 239 241 243 246 248 250 251 252 252 252 253 255 256 257 258 257 256 258 261 263 264 264 267 271 274 278 280
239 240 239 239 239 240 241 242 242 241 242 242 243 243 243 242 243 244 244 244 244 243 243 244 245 246 248 249 250 250 251 251 251 251 251 250 251 252 252 252 251 251 250 250 250 249 248 247 245 243 242 241 241 241 241 240 239 238 237 239 240 241 243 246 249 252 254 255 255 256 257 258 259 260 260 259 260 261 263 264 266 269 272 275 278 281
239 239 239 239 239 240 241 242 242 242 242 242 243 244 244 244 244 244 245 245 245 244 245 246 246 247 248 250 251 252 252 253 253 254 254 254 254 254 254 254 254 253 253 252 252 252 251 249 248 246 244 244 244 244 244 243 243 242 241 241 242 242 243 244 247 249 252 254 256 257 258 259 260 262 262 262 263 263 264 265 267 269 271 273 277 280
239 239 240 240 240 241 242 242 243 243 243 243 243 244 244 245 244 244 244 244 244 245 245 246 247 248 248 249 251 252 253 253 254 255 256 256 257 257 257 257 256 256 256 255 255 254 253 251 250 249 248 247 246 246 246 246 246 245 245 244 245 245 245 246 247 249 251 253 255 257 258 259 260 262 263 264 264 265 265 266 267 269 270 271 274 277
241 240 240 241 241 242 242 243 243 243 243 243 243 243 244 244 244 244 244 244 244 245 245 246 247 248 249 250 251 252 253 254 255 255 256 257 258 260 260 260 260 260 259 259 257 256 254 253 252 251 250 249 248 248 248 248 248 248 248 247 247 247 247 248 249 250 251 253 255 257 258 259 261 262 263 263 263 264 265 266 267 268 269 270 273 275
242 242 242 242 243 243 243 243 244 244 244 243 242 242 243 243 243 244 244 244 244 245 245 246 247 249 250 251 252 253 254 255 255 256 256 257 258 260 262 263 264 264 263 261 260 258 256 255 253 252 251 251 250 250 250 250 250 250 249 249 249 249 249 249 250 251 252 253 255 257 258 259 261 262 263 263 263 263 265 266 267 268 269 271 272 274
243 243 244 244 244 245 245 246 246 245 245 245 244 243 243 244 244 245 244 244 244 245 246 246 248 249 250 251 252 253 254 255 256 257 257 258 258 259 262 264 264 264 264 263 262 261 259 258 256 255 253 253 252 252 251 251 251 251 251 251 251 251 251 251 251 251 252 253 254 256 257 258 260 261 262 262 263 264 265 266 268 269 269 270 271 272
243 244 245 246 246 246 247 248 249 249 248 248 247 246 246 246 246 247 247 247 247 247 247 247 249 250 251 252 254 255 256 257 258 258 259 259 259 260 261 262 262 262 262 262 262 261 261 260 259 258 257 255 254 253 253 253 252 252 252 252 252 253 253 253 253 253 253 254 254 255 256 257 258 259 260 261 262 263 264 265 267 268 269 270 271 272
242 243 244 245 246 247 247 247 248 249 250 249 249 249 249 249 249 249 250 251 251 250 250 250 251 252 253 254 255 257 258 259 259 259 259 259 259 259 259 259 260 261 261 260 258 259 260 262 262 261 260 259 257 256 255 254 254 254 254 255 255 255 255 255 255 256 256 256 257 257 257 258 258 259 260 261 262 263 264 265 266 267 269 270 272 273
240 240 242 243 244 245 247 248 248 248 248 249 250 251 252 252 252 252 252 253 254 254 254 254 254 255 255 256 257 258 259 260 260 260 259 258 257 256 255 254 254 255 256 257 257 258 260 261 262 262 262 262 261 259 257 256 256 256 256 256 256 256 256 256 256 257 257 257 258 258 259 259 260 261 261 262 263 264 265 266 267 268 269 269 270 271
241 240 241 243 243 244 246 249 250 249 249 249 250 250 251 252 253 254 254 254 255 256 256 256 257 257 257 258 258 259 259 260 261 261 260 258 256 254 252 251 250 250 250 254 258 260 260 260 261 261 261 261 261 261 261 260 258 257 257 256 256 256 256 256 256 257 257 257 258 258 259 259 260 261 262 262 263 264 265 265 266 267 267 268 269 269
243 242 242 244 245 246 247 249 251 252 252 252 251 249 249 251 252 253 254 255 256 256 257 257 257 257 258 258 259 259 259 260 261 261 261 260 258 256 254 252 251 250 251 253 257 260 260 260 259 258 258 257 258 259 261 261 260 259 258 257 257 257 257 257 257 257 257 257 258 258 259 259 260 261 262 262 263 264 264 265 265 266 267 267 267 268
242 242 242 243 244 246 248 249 250 251 252 253 253 252 251 250 250 251 252 254 256 256 256 256 255 255 256 256 257 258 258 258 259 260 260 260 259 259 258 257 255 254 254 255 256 257 257 258 257 256 256 255 256 257 259 260 261 261 260 260 259 259 258 258 258 258 258 258 259 259 260 260 261 261 262 263 263 264 264 265 265 266 266 266 267 267
241 242 242 242 243 244 245 246 247 248 248 250 252 253 253 253 252 252 252 252 254 255 255 255 255 255 255 255 256 256 257 258 258 258 259 259 260 260 259 259 258 257 256 256 256 255 255 254 255 255 255 255 256 256 257 259 260 261 262 262 262 262 261 260 259 259 259 260 260 261 261 262 262 262 262 263 263 263 264 265 265 265 266 266 266 266
242 242 243 243 243 244 245 246 247 247 247 248 250 252 253 254 254 255 254 254 253 254 254 255 255 256 256 256 257 257 258 259 259 260 261 261 261 261 261 261 260 259 259 258 258 258 257 256 255 255 254 254 255 255 256 257 259 260 261 262 263 264 264 264 263 263 263 262 263 263 263 263 263 263 263 263 263 264 264 265 265 266 266 266 266 266
242 242 243 244 245 245 246 247 248 248 248 249 251 252 254 255 255 256 257 256 256 256 257 258 258 258 258 259 259 259 259 260 260 261 261 262 262 262 262 262 262 262 261 261 261 261 260 260 259 258 258 257 257 257 257 258 259 260 260 261 262 263 264 265 265 265 266 266 266 266 266 266 266 266 266 266 265 265 265 265 265 266 266 266 266 266
241 242 242 243 244 245 246 246 248 249 249 250 251 252 253 254 255 256 257 257 257 258 259 259 260 260 260 260 260 260 261 261 261 261 262 262 263 263 263 263 263 262 262 262 262 262 262 262 262 262 261 261 260 260 260 260 260 261 261 261 261 262 262 263 264 265 265 266 266 267 267 267 267 268 268 268 267 267 266 266 266 266 266 266 266 266
242 243 243 244 244 245 246 246 247 248 248 249 250 251 252 253 254 255 256 256 256 257 257 258 259 259 260 260 261 261 261 262 262 263 263 263 263 264 264 264 264 264 264 264 264 264 264 264 264 264 263 263 262 261 261 261 261 261 261 261 261 261 262 262 263 263 264 264 265 265 265 265 266 266 266 266 267 267 267 267 266 266 266 266 266 266
244 244 245 245 245 246 247 247 248 248 248 249 249 250 251 252 253 253 254 255 255 256 256 257 258 258 259 260 260 261 261 262 263 263 263 264 264 264 265 265 265 265 265 265 265 265 265 265 265 264 264 263 263 263 262 262 262 262 261 261 261 261 261 262 262 262 263 263 264 264 264 264 264 264 264 264 264 265 265 266 266 266 266 267 267 267
245 245 245 246 246 247 247 248 248 249 249 250 250 250 251 252 253 253 254 254 255 255 256 256 257 258 259 259 260 260 261 261 262 262 263 263 264 264 264 265 265 265 266 266 266 266 266 266 266 266 265 265 264 264 263 263 263 263 262 262 262 261 261 261 261 261 261 262 262 262 262 262 263 263 263 263 263 264 264 264 265 265 265 266 267 267
245 245 246 246 247 247 248 248 249 249 250 250 250 251 251 251 252 253 253 254 254 255 256 256 257 257 258 259 259 260 260 261 261 261 262 262 263 263 264 265 265 266 266 266 266 267 267 267 267 267 267 266 266 266 265 265 264 264 263 263 263 262 261 261 261 261 261 261 261 260 260 261 261 261 261 262 262 262 263 263 264 264 264 265 265 266
245 245 245 246 247 247 248 248 249 250 250 251 251 251 251 252 252 253 253 254 254 255 255 256 257 257 258 258 259 259 260 260 261 262 262 263 263 264 264 265 265 266 266 267 267 267 267 267 267 267 267 267 267 267 266 266 265 265 264 263 263 263 262 262 262 261 261 261 261 261 260 260 260 260 261 261 261 261 261 262 263 263 263 264 264 265
246 246 246 246 247 247 248 248 249 249 250 251 251 252 252 253 253 254 254 254 255 256 256 257 258 258 258 259 259 260 260 261 262 262 263 263 264 264 265 265 265 265 266 266 266 266 266 267 267 267 267 267 267 267 267 266 266 266 265 264 264 264 263 263 263 263 262 262 262 261 261 261 260 260 260 261 261 261 261 261 261 261 262 263 263 264
247 247 248 248 249 249 249 250 250 251 251 252 253 254 254 255 255 256 256 257 257 257 257 258 258 259 259 259 260 261 261 262 262 263 263 264 264 265 265 265 265 266 266 266 266 267 267 267 267 267 267 267 267 267 267 267 267 267 266 266 265 264 264 264 264 264 263 263 262 262 262 262 262 261 261 261 260 260 261 261 261 261 261 261 262 262
250 250 249 249 250 250 251 251 251 252 253 253 254 254 255 255 256 256 257 257 257 258 258 258 258 259 259 259 260 261 261 262 262 263 263 264 264 265 265 266 266 266 267 267 267 267 268 268 267 267 267 267 267 268 268 268 268 269 268 268 267 266 266 266 265 265 264 264 263 262 262 262 263 263 263 262 261 261 260 260 261 261 261 261 261 261
Height
10582 10585 10588 10592 10597 10601 10603 10605 10608 10610 10612 10612 10613 10614 10616 10617 10620 10626 10630 10631 10632 10633 10634 10635 10635 10637 10640 10639 10639 10639 10639 10639 10640 10640 10641 10644 10646 10647 10648 10650 10648 10648 10649 10651 10655 10658 10660 10660 10660 10660 10661 10663 10666 10667 10669 10673 10677 10676 10674 10673 10674 10675 10671 10665 10662 10662 10661 10660 10658 10656 10655 10654 10654 10654 10655 10655 10656 10657 10657 10658 10658 10659 10660 10661 10662 10663
10575 10579 10583 10588 10592 10594 10595 10597 10600 10603 10605 10605 10606 10608 10610 10611 10615 10620 10623 10624 10625 10626 10627 10628 10631 10633 10633 10632 10632 10633 10632 10632 10633 10635 10636 10638 10639 10641 10642 10643 10642 10642 10643 10646 10650 10654 10656 10657 10657 10658 10659 10661 10662 10662 10664 10667 10670 10671 10670 10669 10669 10670 10667 10661 10659 10659 10657 10656 10654 10652 10651 10650 10650 10650 10651 10652 10652 10653 10654 10655 10656 10657 10657 10658 10659 10660
10570 10574 10579 10582 10584 10586 10588 10591 10594 10597 10598 10599 10600 10602 10603 10606 10610 10614 10617 10618 10618 10619 10620 10622 10625 10627 10626 10626 10626 10625 10625 10626 10627 10629 10630 10631 10633 10634 10635 10635 10635 10636 10638 10642 10646 10650 10653 10654 10655 10656 10657 10657 10657 10656 10657 10660 10664 10667 10668 10667 10666 10665 10660 10655 10655 10655 10653 10652 10650 10649 10648 10647 10647 10647 10647 10648 10649 10650 10651 10652 10653 10654 10654 10655 10656 10656
10566 10570 10573 10574 10577 10580 10583 10585 10588 10590 10591 10593 10594 10596 10598 10602 10606 10608 10610 10612 10612 10612 10614 10616 10619 10620 10620 10620 10620 10619 10620 10620 10621 10623 10624 10625 10627 10628 10628 10628 10630 10631 10633 10637 10642 10647 10650 10653 10655 10654 10653 10652 10651 10650 10651 10656 10660 10661 10661 10661 10659 10654 10649 10647 10648 10648 10648 10647 10646 10646 10645 10644 10643 10643 10644 10644 10645 10646 10647 10648 10649 10650 10651 10652 10652 10653
10562 10564 10566 10568 10572 10575 10577 10580 10582 10584 10585 10587 10589 10591 10594 10598 10600 10603 10604 10605 10606 10606 10608 10611 10613 10614 10614 10614 10614 10613 10614 10615 10616 10617 10617 10619 10621 10622 10622 10623 10624 10626 10629 10633 10639 10644 10650 10655 10656 10652 10649 10646 10644 10643 10645 10651 10654 10652 10650 10651 10648 10644 10641 10641 10643 10644 10644 10644 10643 10642 10641 10640 10640 10640 10641 10641 10642 10643 10644 10644 10645 10646 10647 10648 10649 10649
10556 10557 10560 10563 10566 10568 10571 10574 10576 10578 10580 10581 10583 10586 10589 10593 10595 10597 10598 10600 10601 10600 10602 10606 10607 10607 10607 10607 10607 10607 10608 10609 10610 10611 10612 10613 10615 10616 10616 10618 10619 10622 10625 10630 10636 10643 10650 10657 10657 10652 10646 10639 10635 10637 10639 10643 10646 10645 10645 10645 10644 10641 10638 10638 10640 10641 10641 10640 10639 10638 10637 10636 10636 10637 10637 10638 10639 10640 10640 10641 10641 10642 10643 10644 10645 10645
10549 10552 10555 10558 10560 10563 10565 10568 10570 10572 10574 10576 10579 10581 10584 10588 10590 10592 10593 10595 10595 10594 10597 10600 10601 10600 10600 10601 10602 10601 10602 10603 10604 10605 10607 10608 10609 10611 10612 10613 10615 10617 10621 10627 10634 10642 10651 10656 10653 10647 10637 10626 10625 10631 10634 10636 10639 10640 10641 10641 10640 10638 10635 10634 10635 10636 10636 10635 10634 10634 10633 10632 10632 10632 10633 10635 10635 10636 10636 10637 10637 10637 10638 10640 10641 10641
10544 10547 10551 10553 10555 10557 10559 10563 10565 10567 10569 10571 10574 10576 10579 10582 10585 10586 10588 10589 10590 10590 10592 10594 10595 10594 10594 10595 10595 10595 10596 10597 10598 10599 10602 10604 10605 10606 10607 10608 10610 10613 10618 10624 10631 10641 10645 10642 10636 10630 10621 10615 10619 10626 10628 10632 10635 10637 10637 10635 10634 10633 10631 10632 10631 10630 10630 10630 10629 10630 10629 10629 10628 10629 10630 10631 10631 10632 10632 10632 10632 10632 10633 10635 10636 10637
10540 10543 10545 10547 10549 10551 10554 10557 10559 10562 10564 10566 10568 10571 10573 10577 10579 10581 10582 10584 10584 10585 10586 10587 10590 10589 10587 10588 10589 10590 10590 10591 10593 10594 10597 10599 10600 10602 10602 10603 10606 10609 10614 10620 10627 10631 10627 10619 10617 10615 10611 10610 10616 10621 10626 10631 10635 10637 10634 10629 10628 10628 10627 10627 10626 10625 10625 10624 10624 10625 10625 10624 10624 10625 10626 10626 10627 10627 10627 10627 10627 10627 10629 10630 10631 10632
10534 10537 10539 10541 10543 10545 10548 10551 10554 10556 10559 10561 10563 10565 10568 10571 10574 10575 10577 10578 10579 10581 10580 10581 10584 10584 10581 10581 10583 10584 10585 10586 10588 10589 10590 10592 10594 10597 10597 10599 10602 10605 10610 10616 10620 10618 10611 10608 10609 10609 10607 10607 10611 10619 10626 10632 10637 10639 10631 10622 10622 10622 10621 10620 10620 10620 10619 10619 10619 10620 10619 10619 10620 10621 10622 10622 10623 10623 10623 10623 10623 10623 10625 10626 10627 10628
10528 10531 10533 10535 10537 10539 10542 10546 10548 10551 10553 10556 10558 10560 10563 10566 10568 10570 10571 10572 10574 10576 10575 10576 10579 10579 10576 10575 10577 10579 10581 10581 10582 10583 10584 10586 10588 10590 10592 10594 10597 10601 10607 10611 10611 10608 10605 10605 10605 10606 10607 10608 10611 10618 10624 10629 10635 10634 10626 10617 10615 10615 10613 10613 10614 10614 10614 10613 10614 10614 10614 10614 10615 10616 10617 10618 10619 10619 10619 10619 10620 10620 10621 10622 10623 10623
10523 10525 10527 10529 10531 10534 10537 10541 10543 10546 10548 10551 10553 10555 10558 10561 10563 10565 10566 10568 10571 10571 10570 10571 10575 10575 10571 10570 10572 10574 10575 10576 10577 10578 10579 10580 10582 10584 10586 10589 10592 10596 10602 10604 10602 10600 10600 10601 10603 10606 10610 10610 10610 10612 10615 10620 10625 10623 10616 10610 10606 10605 10605 10606 10607 10608 10608 10607 10607 10608 10608 10609 10610 10611 10612 10613 10614 10614 10615 10616 10616 10616 10617 10618 10618 10619
10517 10520 10522 10524 10527 10529 10533 10536 10538 10541 10543 10545 10547 10550 10554 10555 10558 10561 10562 10564 10566 10564 10565 10568 10570 10570 10566 10565 10568 10569 10569 10570 10572 10572 10573 10575 10577 10579 10581 10583 10586 10590 10595 10596 10593 10593 10595 10597 10600 10606 10608 10603 10601 10603 10605 10610 10614 10612 10607 10601 10597 10598 10600 10601 10602 10602 10602 10601 10601 10602 10603 10603 10605 10606 10607 10608 10609 10610 10611 10611 10612 10612 10612 10613 10614 10614
10513 10515 10517 10520 10522 10524 10527 10530 10532 10534 10536 10539 10542 10546 10549 10549 10552 10556 10557 10559 10559 10558 10561 10563 10565 10565 10562 10561 10563 10563 10563 10565 10566 10567 10569 10570 10572 10574 10576 10578 10581 10585 10589 10589 10586 10587 10590 10593 10596 10602 10602 10595 10595 10598 10599 10602 10605 10605 10601 10597 10594 10596 10598 10599 10598 10597 10597 10596 10597 10597 10598 10599 10600 10600 10601 10603 10604 10605 10605 10607 10608 10608 10607 10608 10609 10610
10507 10509 10511 10514 10516 10519 10521 10524 10526 10528 10530 10534 10538 10540 10542 10543 10546 10549 10551 10552 10553 10553 10556 10558 10560 10561 10558 10556 10556 10557 10557 10559 10560 10562 10564 10566 10568 10569 10571 10574 10576 10579 10582 10582 10580 10581 10585 10590 10594 10600 10600 10595 10594 10595 10595 10596 10598 10598 10597 10594 10592 10592 10595 10597 10595 10593 10593 10592 10592 10593 10593 10594 10595 10596 10596 10597 10598 10599 10600 10601 10602 10603 10603 10602 10603 10604
10501 10503 10505 10508 10511 10513 10515 10518 10521 10523 10524 10528 10532 10534 10536 10538 10539 10542 10545 10546 10547 10548 10550 10553 10555 10555 10552 10550 10551 10551 10552 10553 10555 10557 10559 10561 10563 10565 10567 10569 10571 10573 10575 10576 10575 10576 10579 10585 10590 10595 10597 10595 10592 10590 10589 10590 10591 10592 10592 10590 10588 10588 10590 10593 10593 10591 10589 10588 10588 10589 10589 10590 10591 10591 10591 10592 10592 10593 10594 10595 10596 10597 10598 10597 10597 10598
10495 10497 10499 10502 10505 10508 10510 10513 10516 10517 10519 10522 10526 10528 10529 10532 10534 10537 10539 10540 10541 10543 10544 10546 10548 10548 10546 10545 10545 10546 10547 10548 10550 10552 10555 10557 10559 10560 10562 10563 10565 10567 10569 10569 10569 10570 10572 10577 10582 10585 10588 10589 10586 10584 10583 10582 10584 10587 10587 10585 10584 10584 10585 10588 10588 10587 10586 10585 10584 10584 10585 10585 10585 10585 10586 10587 10587 10588 10588 10589 10590 10591 10592 10592 10591 10591
10489 10491 10494 10497 10500 10503 10505 10507 10510 10512 10514 10517 10520 10521 10523 10526 10529 10531 10532 10534 10535 10536 10538 10539 10541 10541 10541 10540 10540 10541 10542 10544 10546 10548 10550 10552 10554 10555 10557 10558 10559 10561 10562 10564 10564 10564 10565 10569 10574 10577 10579 10581 10579 10577 10575 10575 10577 10580 10581 10580 10579 10579 10580 10582 10582 10581 10581 10581 10580 10580 10580 10580 10580 10580 10581 10582 10583 10584 10584 10584 10584 10584 10585 10586 10585 10585
10484 10485 10488 10492 10494 10496 10499 10501 10505 10507 10509 10510 10513 10515 10517 10520 10523 10524 10525 10528 10529 10530 10531 10533 10534 10535 10535 10533 10533 10535 10538 10540 10542 10544 10546 10547 10548 10550 10551 10552 10554 10555 10557 10558 10558 10558 10559 10562 10566 10570 10573 10574 10573 10571 10570 10569 10570 10572 10574 10574 10573 10573 10574 10575 10575 10575 10575 10575 10575 10575 10576 10576 10576 10575 10576 10577 10579 10579 10580 10579 10580 10580 10581 10581 10581 10580
10478 10479 10482 10485 10488 10491 10493 10496 10499 10501 10503 10504 10507 10510 10512 10514 10516 10517 10520 10522 10523 10524 10525 10526 10528 10529 10528 10526 10527 10531 10533 10536 10537 10539 10541 10543 10543 10544 10545 10546 10547 10549 10550 10552 10552 10553 10554 10556 10560 10563 10565 10566 10566 10565 10564 10563 10563 10565 10567 10567 10567 10567 10567 10567 10568 10569 10569 10569 10569 10569 10570 10570 10571 10571 10572 10573 10573 10574 10575 10575 10576 10576 10576 10577 10576 10576
10472 10474 10475 10479 10483 10485 10487 10491 10493 10495 10497 10498 10501 10504 10506 10508 10509 10511 10514 10516 10517 10518 10519 10520 10521 10521 10520 10520 10522 10526 10528 10530 10532 10534 10536 10537 10538 10538 10540 10540 10541 10542 10544 10546 10547 10547 10548 10550 10552 10555 10558 10559 10559 10558 10557 10556 10557 10559 10560 10561 10561 10560 10559 10560 10561 10562 10562 10562 10563 10563 10564 10565 10565 10566 10567 10568 10568 10568 10569 10570 10571 10571 10571 10572 10572 10572
10467 10469 10470 10473 10476 10478 10481 10485 10486 10488 10491 10494 10496 10497 10499 10502 10503 10505 10508 10510 10511 10512 10513 10514 10515 10513 10513 10514 10517 10519 10522 10525 10526 10528 10529 10530 10531 10533 10534 10535 10536 10537 10538 10540 10541 10542 10543 10544 10545 10548 10551 10553 10553 10553 10551 10551 10552 10554 10555 10555 10555 10554 10553 10554 10554 10555 10556 10556 10557 10558 10558 10559 10560 10561 10562 10562 10562 10562 10563 10564 10565 10565 10566 10566 10567 10568
10461 10463 10464 10468 10471 10473 10476 10479 10480 10483 10485 10487 10490 10491 10493 10496 10498 10500 10502 10503 10504 10505 10507 10508 10507 10507 10507 10509 10511 10512 10515 10518 10520 10522 10523 10523 10524 10526 10528 10529 10530 10531 10533 10535 10536 10537 10537 10538 10539 10541 10543 10545 10547 10547 10547 10547 10548 10549 10548 10548 10548 10548 10547 10548 10548 10549 10550 10550 10551 10552 10552 10553 10554 10555 10556 10556 10556 10557 10557 10558 10558 10559 10559 10560 10560 10561
10454 10457 10460 10463 10465 10467 10470 10472 10475 10478 10479 10481 10484 10486 10488 10490 10492 10494 10495 10496 10497 10499 10501 10501 10501 10501 10502 10503 10504 10506 10508 10511 10513 10515 10516 10516 10517 10520 10522 10523 10524 10525 10527 10529 10530 10531 10531 10532 10532 10533 10535 10538 10539 10540 10541 10542 10542 10542 10542 10541 10541 10540 10540 10540 10541 10542 10542 10543 10544 10545 10546 10547 10548 10549 10550 10551 10551 10551 10551 10552 10552 10552 10552 10553 10553 10554
10448 10451 10455 10457 10459 10461 10464 10466 10469 10472 10473 10475 10478 10479 10481 10484 10486 10487 10488 10490 10492 10494 10495 10495 10495 10495 10496 10496 10498 10499 10501 10504 10506 10509 10510 10510 10511 10513 10515 10516 10518 10519 10521 10522 10523 10524 10525 10525 10526 10526 10527 10529 10531 10533 10534 10535 10536 10536 10535 10534 10533 10533 10533 10533 10534 10534 10535 10536 10537 10538 10539 10540 10540 10542 10545 10547 10547 10545 10545 10546 10545 10545 10545 10546 10546 10546
10442 10445 10449 10452 10453 10455 10457 10460 10463 10465 10466 10468 10470 10472 10474 10477 10479 10481 10483 10484 10486 10489 10489 10489 10489 10489 10489 10490 10492 10493 10494 10497 10499 10501 10503 10504 10505 10506 10508 10510 10511 10513 10514 10515 10516 10517 10517 10518 10520 10520 10521 10522 10524 10525 10527 10528 10529 10529 10528 10528 10527 10527 10527 10527 10528 10528 10529 10529 10530 10532 10532 10532 10534 10536 10539 10541 10541 10539 10539 10539 10539 10539 10539 10539 10539 10539
10437 10439 10442 10445 10447 10447 10450 10453 10456 10457 10459 10462 10464 10466 10469 10472 10473 10475 10477 10479 10481 10483 10483 10482 10482 10482 10483 10485 10486 10487 10488 10489 10491 10493 10496 10497 10498 10499 10500 10502 10504 10506 10507 10508 10509 10510 10511 10512 10513 10514 10515 10516 10516 10517 10519 10520 10521 10522 10522 10521 10521 10521 10522 10522 10522 10522 10522 10522 10523 10524 10525 10525 10528 10530 10531 10533 10534 10533 10532 10533 10533 10533 10533 10532 10532 10532
10431 10433 10436 10438 10439 10441 10444 10446 10448 10451 10454 10457 10459 10461 10464 10466 10468 10470 10472 10473 10476 10477 10476 10475 10477 10477 10477 10479 10479 10481 10482 10483 10484 10486 10488 10490 10490 10491 10493 10494 10497 10499 10500 10502 10503 10504 10505 10506 10507 10508 10509 10509 10509 10510 10512 10513 10514 10515 10515 10514 10514 10515 10516 10516 10515 10515 10515 10515 10516 10517 10518 10519 10521 10522 10522 10524 10528 10529 10527 10524 10525 10526 10527 10526 10526 10525
10424 10427 10429 10431 10432 10434 10437 10439 10441 10444 10447 10450 10453 10455 10457 10460 10462 10464 10465 10467 10469 10469 10468 10469 10470 10471 10471 10472 10473 10474 10475 10476 10477 10479 10481 10482 10483 10484 10485 10486 10489 10491 10493 10494 10496 10497 10498 10499 10500 10501 10502 10502 10503 10504 10505 10506 10507 10508 10508 10508 10507 10508 10509 10509 10509 10509 10509 10508 10509 10510 10511 10512 10514 10515 10515 10518 10522 10523 10519 10517 10517 10518 10520 10519 10519 10519
10418 10420 10422 10424 10426 10428 10430 10432 10435 10437 10440 10443 10446 10448 10450 10452 10454 10456 10458 10459 10460 10461 10461 10462 10463 10463 10465 10465 10466 10467 10468 10469 10470 10472 10474 10475 10476 10477 10477 10479 10481 10483 10485 10487 10488 10489 10491 10492 10493 10494 10495 10495 10496 10497 10497 10498 10499 10499 10500 10500 10501 10501 10502 10503 10503 10503 10503 10502 10503 10504 10504 10505 10507 10509 10510 10512 10514 10513 10510 10510 10510 10510 10512 10511 10511 10513
10412 10414 10416 10417 10419 10422 10424 10425 10427 10430 10433 10435 10438 10440 10442 10444 10446 10448 10450 10451 10452 10453 10454 10455 10455 10456 10457 10458 10459 10460 10461 10462 10463 10465 10467 10469 10470 10470 10470 10471 10474 10476 10477 10478 10479 10481 10482 10484 10485 10486 10487 10488 10488 10489 10489 10490 10490 10491 10491 10492 10492 10493 10494 10495 10496 10496 10497 10496 10496 10497 10497 10497 10499 10501 10502 10503 10505 10504 10502 10502 10502 10502 10503 10502 10502 10504
10406 10408 10410 10411 10413 10415 10417 10418 10421 10423 10425 10427 10430 10433 10434 10436 10438 10440 10441 10443 10445 10446 10447 10448 10448 10448 10449 10451 10452 10453 10454 10455 10457 10458 10460 10463 10465 10464 10463 10466 10468 10468 10469 10469 10470 10471 10472 10474 10476 10478 10479 10480 10481 10481 10481 10481 10481 10481 10482 10482 10483 10483 10485 10486 10487 10488 10489 10490 10490 10490 10491 10491 10491 10492 10493 10493 10494 10494 10494 10493 10492 10493 10494 10494 10493 10493
10400 10402 10403 10405 10407 10409 10410 10412 10414 10415 10418 10421 10423 10425 10426 10428 10430 10431 10433 10435 10436 10438 10439 10440 10440 10441 10442 10444 10445 10446 10447 10448 10449 10452 10454 10457 10459 10459 10459 10460 10460 10459 10459 10459 10459 10460 10462 10464 10466 10468 10470 10471 10472 10473 10473 10472 10472 10471 10472 10472 10473 10474 10475 10476 10478 10479 10480 10481 10482 10482 10483 10483 10483 10484 10484 10484 10483 10483 10484 10484 10482 10483 10484 10484 10483 10482
10393 10395 10398 10399 10401 10403 10404 10405 10405 10408 10412 10415 10416 10417 10419 10421 10422 10423 10424 10426 10428 10430 10432 10433 10433 10434 10435 10436 10437 10437 10438 10440 10442 10445 10447 10449 10453 10455 10454 10452 10451 10451 10451 10450 10450 10450 10451 10453 10455 10458 10460 10462 10463 10463 10463 10462 10462 10461 10462 10463 10463 10464 10465 10467 10468 10470 10471 10472 10473 10474 10474 10474 10473 10474 10474 10474 10473 10473 10474 10474 10473 10473 10473 10472 10472 10472
10387 10389 10391 10392 10394 10395 10396 10396 10398 10402 10406 10406 10407 10410 10412 10413 10414 10415 10416 10418 10420 10423 10425 10426 10427 10428 10428 10429 10430 10430 10430 10432 10434 10436 10439 10442 10445 10449 10447 10445 10444 10444 10442 10440 10439 10440 10442 10444 10447 10449 10450 10451 10452 10452 10451 10451 10451 10452 10453 10454 10454 10454 10455 10457 10459 10461 10462 10463 10463 10463 10463 10462 10463 10463 10463 10464 10464 10463 10463 10464 10463 10463 10463 10462 10462 10462
10379 10381 10383 10384 10386 10387 10387 10388 10392 10396 10397 10397 10400 10403 10404 10405 10406 10407 10408 10410 10412 10415 10417 10418 10420 10420 10420 10421 10422 10422 10422 10423 10425 10427 10430 10433 10437 10439 10439 10439 10439 10438 10433 10429 10429 10433 10436 10438 10439 10440 10439 10440 10440 10439 10439 10440 10441 10443 10444 10443 10443 10443 10444 10447 10449 10449 10450 10451 10452 10452 10451 10451 10451 10451 10452 10452 10453 10452 10452 10452 10452 10452 10452 10452 10452 10451
10371 10374 10376 10377 10379 10380 10380 10381 10384 10387 10389 10391 10394 10396 10396 10397 10398 10399 10400 10402 10404 10407 10409 10410 10411 10411 10412 10412 10412 10413 10413 10414 10415 10417 10420 10423 10426 10428 10429 10431 10432 10430 10426 10421 10421 10426 10430 10431 10431 10431 10430 10430 10429 10427 10428 10429 10431 10433 10433 10431 10431 10432 10434 10436 10437 10437 10438 10439 10439 10439 10439 10439 10439 10439 10440 10440 10440 10440 10440 10441 10441 10441 10441 10441 10441 10441
10363 10366 10370 10371 10371 10372 10373 10375 10378 10380 10382 10383 10384 10386 10388 10389 10389 10391 10392 10394 10397 10400 10401 10402 10402 10402 10403 10403 10403 10404 10404 10405 10407 10409 10410 10412 10415 10417 10418 10421 10422 10421 10419 10415 10415 10419 10421 10421 10422 10422 10421 10421 10419 10418 10418 10419 10419 10421 10421 10420 10421 10423 10425 10426 10426 10427 10427 10427 10426 10427 10427 10427 10428 10428 10428 10429 10429 10429 10429 10429 10429 10429 10429 10430 10429 10430
10354 10358 10361 10363 10364 10365 10367 10369 10371 10372 10374 10374 10374 10376 10379 10380 10381 10382 10384 10387 10390 10391 10391 10391 10392 10393 10393 10394 10394 10395 10395 10397 10400 10400 10401 10402 10405 10407 10408 10410 10411 10411 10410 10408 10408 10410 10412 10411 10412 10413 10412 10412 10411 10410 10409 10409 10409 10410 10410 10410 10411 10412 10415 10417 10417 10417 10417 10416 10416 10416 10417 10417 10418 10418 10418 10418 10419 10419 10418 10418 10418 10418 10418 10418 10419 10420
10346 10349 10352 10354 10356 10358 10359 10360 10361 10364 10366 10366 10365 10367 10369 10370 10371 10372 10376 10382 10383 10380 10379 10381 10382 10383 10384 10385 10386 10386 10387 10389 10391 10391 10392 10393 10395 10397 10398 10399 10400 10400 10400 10399 10399 10400 10401 10402 10402 10403 10403 10403 10402 10401 10401 10400 10400 10400 10400 10400 10401 10402 10404 10406 10406 10406 10406 10406 10406 10406 10407 10407 10407 10407 10408 10408 10409 10409 10408 10408 10408 10408 10407 10407 10408 10411
10337 10340 10342 10344 10347 10349 10351 10351 10352 10354 10357 10358 10358 10359 10359 10360 10362 10363 10368 10373 10372 10368 10369 10372 10373 10374 10375 10376 10377 10377 10378 10380 10381 10382 10383 10384 10385 10386 10387 10388 10389 10389 10389 10389 10389 10389 10390 10391 10393 10394 10394 10394 10393 10392 10392 10391 10391 10390 10390 10391 10391 10392 10392 10393 10394 10394 10395 10395 10395 10395 10396 10396 10396 10396 10397 10397 10398 10399 10398 10398 10397 10397 10397 10396 10398 10400
10327 10330 10333 10335 10338 10340 10342 10342 10342 10345 10349 10351 10351 10351 10350 10351 10353 10356 10359 10362 10361 10359 10361 10363 10364 10365 10366 10367 10368 10369 10369 10371 10372 10372 10373 10373 10374 10375 10376 10377 10377 10378 10378 10378 10378 10379 10379 10380 10381 10382 10383 10383 10383 10383 10382 10381 10381 10381 10380 10381 10382 10382 10381 10381 10382 10382 10382 10383 10383 10383 10384 10384 10384 10384 10384 10385 10386 10387 10387 10387 10387 10386 10386 10386 10386 10388
10317 10320 10323 10325 10328 10330 10332 10332 10332 10336 10342 10343 10341 10341 10342 10343 10345 10348 10349 10350 10351 10352 10352 10353 10354 10355 10356 10357 10358 10358 10359 10360 10361 10361 10362 10363 10363 10364 10364 10365 10366 10366 10366 10367 10367 10368 10368 10369 10370 10370 10371 10372 10372 10372 10371 10370 10370 10370 10369 10370 10371 10371 10370 10370 10371 10371 10371 10371 10371 10371 10371 10372 10372 10372 10372 10372 10373 10374 10375 10376 10376 10375 10375 10375 10375 10376
10308 10310 10312 10315 10318 10320 10320 10321 10323 10327 10331 10331 10331 10332 10333 10334 10336 10338 10338 10339 10341 10342 10342 10343 10344 10344 10345 10346 10347 10348 10348 10349 10349 10350 10351 10352 10352 10352 10352 10353 10353 10354 10354 10355 10356 10356 10357 10357 10358 10358 10358 10359 10359 10359 10359 10359 10359 10358 10358 10358 10360 10359 10359 10360 10360 10360 10359 10359 10359 10359 10359 10359 10360 10360 10360 10360 10360 10360 10361 10363 10363 10363 10363 10364 10363 10364
10300 10301 10303 10305 10308 10309 10310 10311 10314 10317 10319 10320 10321 10322 10322 10324 10326 10327 10327 10329 10330 10331 10332 10332 10333 10333 10334 10335 10336 10336 10337 10338 10338 10339 10339 10340 10340 10341 10341 10341 10341 10342 10342 10343 10344 10344 10344 10344 10344 10344 10345 10345 10346 10346 10346 10346 10346 10346 10345 10346 10347 10347 10348 10348 10348 10348 10348 10347 10347 10346 10346 10346 10346 10346 10346 10347 10347 10347 10348 10349 10350 10350 10351 10351 10351 10352
10290 10293 10294 10295 10297 10299 10300 10301 10304 10306 10308 10309 10311 10312 10312 10314 10315 10315 10317 10318 10319 10320 10320 10321 10322 10322 10323 10324 10324 10325 10326 10326 10326 10327 10327 10327 10328 10329 10329 10329 10329 10330 10330 10330 10331 10331 10330 10330 10330 10330 10330 10331 10331 10332 10333 10333 10332 10332 10332 10333 10333 10334 10335 10336 10336 10336 10335 10334 10334 10333 10333 10332 10332 10332 10332 10333 10334 10334 10334 10335 10337 10338 10338 10338 10339 10339
10281 10283 10284 10285 10287 10289 10290 10291 10293 10295 10297 10298 10299 10301 10302 10303 10303 10304 10305 10306 10307 10308 10309 10310 10311 10311 10312 10313 10313 10313 10313 10314 10314 10314 10315 10315 10316 10317 10317 10318 10317 10317 10317 10317 10317 10317 10317 10317 10316 10316 10316 10316 10316 10317 10318 10318 10318 10318 10318 10319 10319 10319 10321 10322 10322 10322 10322 10320 10320 10319 10319 10319 10318 10319 10319 10319 10320 10321 10321 10322 10323 10324 10325 10325 10326 10327
10271 10273 10274 10275 10277 10279 10280 10282 10283 10284 10285 10287 10288 10289 10291 10291 10292 10293 10294 10294 10295 10296 10297 10298 10299 10300 10301 10301 10301 10301 10301 10301 10302 10302 10302 10303 10304 10304 10305 10305 10305 10304 10304 10303 10303 10303 10303 10302 10302 10302 10302 10301 10301 10302 10302 10303 10302 10302 10303 10304 10304 10305 10306 10308 10308 10308 10307 10306 10305 10305 10305 10305 10305 10306 10305 10306 10307 10308 10309 10310 10310 10310 10310 10311 10314 10315
10262 10264 10265 10266 10267 10269 10270 10271 10272 10273 10274 10276 10277 10278 10279 10280 10281 10282 10283 10284 10285 10286 10287 10287 10288 10289 10289 10289 10289 10289 10289 10290 10290 10290 10290 10290 10291 10291 10291 10291 10291 10291 10290 10290 10289 10289 10289 10289 10289 10288 10288 10287 10287 10287 10287 10287 10286 10286 10288 10289 10290 10290 10292 10294 10294 10294 10293 10291 10290 10290 10290 10290 10291 10292 10292 10293 10294 10295 10296 10297 10298 10298 10297 10299 10302 10302
10255 10256 10257 10258 10259 10260 10261 10262 10263 10264 10265 10266 10267 10269 10270 10270 10271 10272 10272 10273 10274 10275 10276 10277 10277 10277 10277 10277 10277 10277 10277 10278 10279 10278 10277 10278 10278 10278 10277 10277 10277 10277 10276 10276 10276 10276 10275 10275 10275 10275 10274 10273 10272 10272 10272 10272 10272 10272 10273 10274 10275 10276 10278 10279 10279 10278 10277 10276 10275 10276 10276 10277 10277 10278 10279 10279 10280 10281 10282 10283 10284 10284 10284 10288 10290 10289
10248 10249 10250 10251 10251 10252 10252 10253 10254 10256 10257 10257 10258 10259 10259 10260 10260 10260 10261 10262 10262 10263 10264 10265 10265 10265 10265 10266 10266 10266 10266 10266 10266 10266 10265 10265 10265 10265 10265 10264 10264 10264 10263 10263 10263 10262 10262 10261 10260 10260 10260 10260 10259 10259 10259 10258 10258 10257 10257 10258 10259 10262 10264 10264 10264 10263 10262 10260 10260 10261 10263 10264 10264 10264 10265 10265 10266 10267 10268 10270 10270 10270 10271 10274 10277 10277